Simultaneous Nadir Overpasses (SNOs) Predictions

Prediction of SNOs between AQUA and METOP-A Satellite Orbit:

Table of predicted SNOs for the next 14.0 days since TLE Epoch: 3/1/2019
Index Date (AQUA) Time (AQUA) Lat,Lon (AQUA) SZA (AQUA ) Date (METOP-A) Time (METOP-A) Lat,Lon (METOP-A) SZA (METOP-A ) Distance(km) Time Diff (sec)
1 03/04/2019 08:06:28 74.90, 50.17 81.60 03/04/2019 08:05:40 74.90, 50.09 81.62 2.14 48
2 03/04/2019 08:55:56 -74.98,-142.42 98.32 03/04/2019 08:56:20 -74.96,-142.41 98.35 2.11 24
3 03/07/2019 03:40:44 74.90, 116.60 80.51 03/07/2019 03:39:54 74.91, 116.51 80.53 2.59 50
4 03/07/2019 04:30:12 -74.98, -75.97 99.42 03/07/2019 04:30:34 -74.97, -75.98 99.43 1.11 22
5 03/09/2019 23:15:00 74.91,-176.98 79.41 03/09/2019 23:14:08 74.91,-177.08 79.43 2.85 52
6 03/10/2019 00:04:28 -74.98, -9.54 100.52 03/10/2019 00:04:48 -74.98, -9.55 100.53 0.84 20
7 03/12/2019 18:49:15 74.92,-110.56 78.31 03/12/2019 18:48:21 74.91,-110.67 78.32 3.20 54
8 03/12/2019 19:38:43 -74.99, 56.88 101.63 03/12/2019 19:39:01 -74.98, 56.87 101.64 1.09 18
9 03/12/2019 20:28:23 75.66,-137.34 79.12 03/12/2019 20:29:27 75.64,-133.86 78.92 95.96 64
10 03/15/2019 14:23:31 74.93, -44.16 77.20 03/15/2019 14:22:34 74.95, -44.13 77.24 2.97 57
11 03/15/2019 15:12:59 -75.00, 123.29 102.74 03/15/2019 15:13:15 -74.98, 123.28 102.75 1.91 16




NCC Satellite Simultaneous Nadir Overpasses (SNOs) Prediction Service
